KOSEN 1
1 49402U 21102H   25334.61761875  .00009013  00000-0  38159-3 0  9995
2 49402  97.3496  15.7619 0014634 182.2948 177.8225 15.23302087223752
HO-113
1 50466U 21131B   25334.84675338  .00000690  00000-0  22790-3 0  9998
2 50466  98.5062  63.3282 0003643 348.7486  11.3621 14.41085571206540
SNUGLITE 2
1 52899U 22065F   25334.83997479  .00001401  00000-0  27779-3 0  9992
2 52899  98.1920 115.4407 0006427 289.0985  70.9521 14.63779346181976
UmKA 1 (RS40S)
1 57172U 23091G   25334.81138786  .00007039  00000-0  34932-3 0  9999
2 57172  97.5366  29.3288 0015187  91.0274 269.2699 15.17916179133880
CubeBel-2 (EU11S)
1 57175U 23091K   25334.83516419  .00015100  00000-0  63299-3 0  9993
2 57175  97.5366  31.7353 0012452  93.8295 266.4365 15.23536907134040
SONATE-2
1 59112U 24043Q   25334.14939914  .00031788  00000-0  69475-3 0  9999
2 59112  97.5319 109.9402 0008936 208.0100 152.0668 15.44076357 97035
MO-122
1 60209U 24125G   25334.55290488  .00034926  00000-0  73408-3 0  9998
2 60209  97.2542 184.9240 0013520 226.4678 133.5449 15.45153836 78726
GRBBeta
1 60237U 24128C   25334.78939034  .00004437  00000-0  31879-3 0  9994
2 60237  61.9895 191.3560 0056702  94.2597 266.4977 15.04569693 76393
Curium One
1 60242U 24128H   25334.86588604  .00008861  00000-0  55728-3 0  9996
2 60242  61.9788 186.2425 0056385  91.3681 269.3873 15.08552592 76494
ROBUSTA-3A
1 60243U 24128J   25334.86420385  .00007796  00000-0  50035-3 0  9990
2 60243  61.9863 187.7301 0056381  88.7625 271.9927 15.07947575 76477
CatSat
1 60246U 24125J   25334.52309521  .00040882  00000-0  10270-2 0  9990
2 60246  97.2339 182.0480 0033814 189.0161 171.0482 15.39268060 76647
HYPERVIEW-1G (RS66S)
1 61772U 24199AP  25334.84212750  .00044161  00000-0  88753-3 0  9994
2 61772  97.3229 204.1383 0008593 292.1212  67.9125 15.46476814103776
AO-123
1 61781U 24199AY  25334.84847207  .00011830  00000-0  38943-3 0  9998
2 61781  97.3265 200.4306 0013396 303.8267  56.1698 15.31562351103521
ZIMSAT 2
1 61783U 24199BA  25334.87846794  .00177630  00000-0  16027-2 0  9992
2 61783  97.3121 207.2998 0003487 285.6706  74.4170 15.67589113107145
HADES-R (SO-124)
1 62690U 25009CK  25334.22979136  .00145739  00000-0  22134-2 0  9998
2 62690  97.3903  56.4136 0002315 221.7800 138.3277 15.54062205 48836
HYDRA-T
1 62692U 25009CM  25334.15647164  .00165962  00000-0  23957-2 0  9999
2 62692  97.3899  56.5103 0002131 229.5307 130.5762 15.55386983 48837
JINJUSat 1B
1 63210U 25052A   25334.65765326  .00019093  00000-0  74171-3 0  9998
2 63210  97.4208 226.8931 0006064  72.8964 287.2938 15.26096216 39747
NUSHSAT 1
1 63211U 25052B   25334.66091760  .00021318  00000-0  80412-3 0  9992
2 63211  97.4189 227.0023 0006052  75.3188 284.8721 15.27051473 39755
TEVEL2-4
1 63213U 25052D   25334.65664756  .00019819  00000-0  76224-3 0  9993
2 63213  97.4113 226.5744 0005129  86.2050 273.9775 15.26426016 39746
TEVEL2-5
1 63214U 25052E   25334.66154013  .00019659  00000-0  75766-3 0  9997
2 63214  97.4108 226.5688 0005128  86.2780 273.9045 15.26357723 39745
TEVEL2-6
1 63215U 25052F   25334.66847230  .00019278  00000-0  74412-3 0  9992
2 63215  97.4111 226.5642 0005237  86.6396 273.5441 15.26310187 39747
TEVEL2-1
1 63217U 25052H   25334.64305002  .00019920  00000-0  77605-3 0  9999
2 63217  97.4089 226.3595 0005251  95.7453 264.4384 15.25995307 39735
TEVEL2-3
1 63218U 25052J   25334.64241740  .00019715  00000-0  76768-3 0  9999
2 63218  97.4087 226.3641 0005227  96.5945 263.5889 15.26014228 39739
TEVEL2-2
1 63219U 25052K   25334.64382943  .00019711  00000-0  76794-3 0  9996
2 63219  97.4083 226.3606 0005269  96.1399 264.0440 15.25995859 39738
TEVEL2-9
1 63237U 25052AD  25334.26693839  .00018960  00000-0  77170-3 0  9997
2 63237  97.4148 225.7114 0008710 115.7931 244.4206 15.24517954 39648
TEVEL2-7
1 63238U 25052AE  25334.67351317  .00017455  00000-0  71342-3 0  9998
2 63238  97.4149 226.0907 0008842 114.2481 245.9682 15.24392035 39706
TEVEL2-8
1 63239U 25052AF  25334.67894286  .00017086  00000-0  69899-3 0  9990
2 63239  97.4148 226.0810 0008890 114.7406 245.4758 15.24364915 39709
HYDRA-W
1 63490U 25052BL  25334.68282230  .00066900  00000-0  17128-2 0  9996
2 63490  97.4078 228.3104 0011222 101.8674 258.3831 15.39100024 39865
HADES-ICM (SO-125)
1 63492U 25052BN  25334.66333395  .00059034  00000-0  15991-2 0  9991
2 63492  97.4083 228.0549 0011131 105.9755 254.2716 15.37397130 39846
Dragonfly
1 65729U 98067XH  25334.06728159  .00136962  00000-0  12301-2 0  9990
2 65729  51.6265 200.4173 0006451 201.2290 158.8439 15.67290907 11179
RSP-03
1 65732U 98067XL  25334.74792252  .00100324  00000-0  98892-3 0  9997
2 65732  51.6285 197.4651 0006767 181.4388 178.6589 15.65119481 11281
GHS-01
1 65733U 98067XM  25334.80164420  .00153923  00000-0  12670-2 0  9997
2 65733  51.6284 196.3266 0006886 204.1704 155.8970 15.69357047 11308
BOTAN
1 65942U 98067XP  25334.36475178  .00096969  00000-0  11760-2 0  9990
2 65942  51.6296 201.6606 0004564 157.9332 202.1859 15.59824542  7938
CEVROSAT1
1 98526U 25248E   25313.13142326  .00000000  00000-0  19360-3 0    02
2 98526  45.4084 218.4764 0001315 254.8982 242.1062 15.17981583    02
